Location: The D'Auria's Ocala Star Observatory
(29.0276°N, 82.1742°W)
Time: 03:47:18
(UTC-04:00)

Okean 3 Rocket - Visible Passes

Search period start: 26 April 2017 00:00
Search period end: 06 May 2017 00:00
Orbit: 615 x 645 km, 82.5° (Epoch: 24 April)

Date Brightness Start Highest point End Pass type
(mag) Time Alt. Az. Time Alt. Az. Time Alt. Az.
26 Apr 3.9 05:29:55 10° S 05:34:15 66° E 05:38:37 10° NNE visible
27 Apr 3.7 05:50:51 10° SSW 05:55:06 51° W 05:59:24 10° N visible
28 Apr 6.0 04:35:02 10° SE 04:38:11 20° E 04:41:23 10° NE visible
28 Apr 4.8 06:12:36 10° SW 06:16:04 23° WNW 06:19:35 10° NNW visible
29 Apr 4.6 04:56:19 21° SSE 04:58:53 45° E 05:03:06 10° NNE visible
30 Apr 3.4 05:17:39 31° SSW 05:19:42 76° W 05:24:08 10° N visible
01 May 6.2 04:01:32 12° ESE 04:02:55 14° E 04:05:11 10° NE visible
01 May 4.3 05:38:56 24° WSW 05:40:37 32° W 05:44:36 10° NNW visible
02 May 5.1 04:22:45 29° ESE 04:23:34 31° E 04:27:28 10° NNE visible
02 May 5.3 06:00:10 13° W 06:01:41 15° WNW 06:04:11 10° NW visible
03 May 3.6 04:43:56 68° SE 04:44:19 74° E 04:48:45 10° N visible
04 May 3.8 05:05:05 46° W 05:05:12 46° W 05:09:29 10° N visible
05 May 5.8 03:48:46 21° E 03:48:46 21° E 03:51:40 10° NE visible
05 May 5.0 05:26:10 21° WNW 05:26:11 21° WNW 05:29:33 10° NNW visible
